DLH3509 EDDF-EPKK

Flight info

Callsign DLH3509
Flight time 1h 13m
Altitude 35000
Route SULUS4D/07C SULUS L984 OKG DCT PADKA
Aircraft A320/M-SDE3FGHIRWY/LB1

Departure

Time 2026-04-14 10:06
Airport Frankfurt Main Airport (EDDF)

Arrival

Time 2026-04-14 11:20
Airport Kraków John Paul II International Airport (EPKK)
Time Latitude Longitude Altitude Speed Heading
2026-04-14 09:24 50.04452 8.56431 368 ft 0 kts 155°
2026-04-14 09:51 50.04453 8.56430 142 ft 2 kts 155°
2026-04-14 09:51 50.04476 8.56413 527 ft 4 kts 155°
2026-04-14 09:52 50.04499 8.56396 309 ft 4 kts 159°
2026-04-14 09:52 50.04518 8.56393 311 ft 4 kts 237°
2026-04-14 09:52 50.04527 8.56428 310 ft 2 kts 250°
2026-04-14 09:52 50.04522 8.56408 308 ft 4 kts 250°
2026-04-14 09:53 50.04513 8.56375 308 ft 1 kts 250°
2026-04-14 09:53 50.04513 8.56374 308 ft 0 kts 250°
2026-04-14 09:59 50.04510 8.56359 310 ft 8 kts 250°
2026-04-14 09:59 50.04476 8.56214 309 ft 15 kts 250°
2026-04-14 09:59 50.04455 8.56125 310 ft 5 kts 250°
2026-04-14 10:00 50.04443 8.56079 308 ft 6 kts 243°
2026-04-14 10:00 50.04386 8.56033 308 ft 10 kts 169°
2026-04-14 10:00 50.04325 8.56067 309 ft 9 kts 155°
2026-04-14 10:00 50.04293 8.56132 309 ft 7 kts 98°
2026-04-14 10:01 50.04285 8.56196 309 ft 5 kts 117°
2026-04-14 10:01 50.04247 8.56237 311 ft 8 kts 159°
2026-04-14 10:01 50.04183 8.56274 313 ft 12 kts 159°
2026-04-14 10:01 50.04112 8.56219 310 ft 15 kts 249°
2026-04-14 10:02 50.04071 8.56048 310 ft 19 kts 250°
2026-04-14 10:02 50.04022 8.55838 314 ft 21 kts 250°
2026-04-14 10:02 50.03966 8.55608 313 ft 25 kts 249°
2026-04-14 10:02 50.03901 8.55336 312 ft 29 kts 250°
2026-04-14 10:03 50.03830 8.55036 312 ft 27 kts 250°
2026-04-14 10:03 50.03772 8.54795 311 ft 12 kts 249°
2026-04-14 10:03 50.03702 8.54708 310 ft 12 kts 182°
2026-04-14 10:03 50.03673 8.54720 311 ft 0 kts 160°
2026-04-14 10:04 50.03657 8.54729 311 ft 7 kts 160°
2026-04-14 10:04 50.03598 8.54792 311 ft 11 kts 118°
2026-04-14 10:04 50.03597 8.54856 307 ft 0 kts 72°
2026-04-14 10:05 50.03639 8.55038 312 ft 54 kts 69°
2026-04-14 10:05 50.03846 8.55901 313 ft 115 kts 69°
2026-04-14 10:06 50.04190 8.57315 339 ft 159 kts 68°
2026-04-14 10:06 50.04554 8.58960 801 ft 161 kts 69°
2026-04-14 10:06 50.04920 8.60607 1473 ft 163 kts 67°
2026-04-14 10:06 50.05323 8.62372 1830 ft 184 kts 68°
2026-04-14 10:07 50.05775 8.64355 2109 ft 207 kts 68°
2026-04-14 10:07 50.06276 8.66565 2638 ft 222 kts 68°
2026-04-14 10:07 50.06693 8.68421 3359 ft 222 kts 69°
2026-04-14 10:07 50.07102 8.70571 4258 ft 230 kts 81°
2026-04-14 10:08 50.07056 8.73121 4816 ft 249 kts 97°
2026-04-14 10:08 50.06752 8.75875 5365 ft 264 kts 98°
2026-04-14 10:08 50.06421 8.78736 6172 ft 271 kts 98°
2026-04-14 10:08 50.06076 8.81659 6881 ft 280 kts 99°
2026-04-14 10:09 50.05783 8.84636 7103 ft 281 kts 92°
2026-04-14 10:09 50.05800 8.87669 7157 ft 280 kts 88°
2026-04-14 10:09 50.05853 8.90691 7159 ft 279 kts 88°
2026-04-14 10:09 50.05912 8.93725 7157 ft 280 kts 86°
2026-04-14 10:10 50.05971 8.96754 7152 ft 280 kts 88°
2026-04-14 10:10 50.06023 8.99773 7144 ft 279 kts 87°
2026-04-14 10:10 50.06073 9.02795 7140 ft 280 kts 87°
2026-04-14 10:10 50.06123 9.05841 7517 ft 283 kts 88°
2026-04-14 10:11 50.06169 9.08913 8422 ft 284 kts 89°
2026-04-14 10:11 50.06213 9.12011 9241 ft 288 kts 90°
2026-04-14 10:11 50.06258 9.15174 10017 ft 294 kts 89°
2026-04-14 10:11 50.06307 9.18440 10403 ft 313 kts 90°
2026-04-14 10:12 50.06355 9.21965 10629 ft 336 kts 90°
2026-04-14 10:12 50.06408 9.25564 11053 ft 349 kts 90°
2026-04-14 10:12 50.06465 9.29380 11727 ft 354 kts 90°
2026-04-14 10:12 50.06519 9.33234 12440 ft 357 kts 90°
2026-04-14 10:13 50.06571 9.37125 13126 ft 362 kts 90°
2026-04-14 10:13 50.06621 9.41069 13816 ft 365 kts 90°
2026-04-14 10:13 50.06670 9.45049 14433 ft 369 kts 90°
2026-04-14 10:13 50.06715 9.49008 15043 ft 372 kts 90°
2026-04-14 10:14 50.06759 9.53069 15662 ft 376 kts 90°
2026-04-14 10:14 50.06804 9.57170 16261 ft 379 kts 90°
2026-04-14 10:14 50.06847 9.61293 16864 ft 383 kts 90°
2026-04-14 10:14 50.06889 9.65458 17475 ft 385 kts 91°
2026-04-14 10:15 50.06931 9.69653 18064 ft 389 kts 91°
2026-04-14 10:15 50.06971 9.73836 18603 ft 392 kts 91°
2026-04-14 10:15 50.07011 9.78098 19101 ft 395 kts 91°
2026-04-14 10:15 50.07049 9.82387 19596 ft 397 kts 91°
2026-04-14 10:16 50.07085 9.86715 20095 ft 400 kts 91°
2026-04-14 10:16 50.07121 9.91067 20624 ft 404 kts 91°
2026-04-14 10:16 50.07156 9.95455 21153 ft 407 kts 91°
2026-04-14 10:16 50.07192 9.99890 21651 ft 410 kts 91°
2026-04-14 10:17 50.07224 10.04292 22139 ft 413 kts 91°
2026-04-14 10:17 50.07253 10.08772 22634 ft 416 kts 91°
2026-04-14 10:17 50.07280 10.13349 23154 ft 418 kts 91°
2026-04-14 10:17 50.07305 10.17890 23653 ft 421 kts 91°
2026-04-14 10:18 50.07351 10.27016 24424 ft 426 kts 91°
2026-04-14 10:18 50.07378 10.31647 24783 ft 428 kts 91°
2026-04-14 10:18 50.07405 10.36310 25138 ft 431 kts 91°
2026-04-14 10:19 50.07427 10.40974 25478 ft 433 kts 91°
2026-04-14 10:19 50.07447 10.45686 25823 ft 435 kts 91°
2026-04-14 10:19 50.07466 10.50417 26161 ft 437 kts 91°
2026-04-14 10:19 50.07483 10.55185 26500 ft 440 kts 91°
2026-04-14 10:20 50.07499 10.59959 26865 ft 441 kts 91°
2026-04-14 10:20 50.07513 10.64670 27235 ft 442 kts 91°
2026-04-14 10:20 50.07524 10.69526 27583 ft 444 kts 92°
2026-04-14 10:20 50.07533 10.74284 27913 ft 446 kts 92°
2026-04-14 10:21 50.07538 10.79118 28225 ft 448 kts 92°
2026-04-14 10:21 50.07538 10.83987 28534 ft 450 kts 92°
2026-04-14 10:21 50.07536 10.88878 28835 ft 451 kts 92°
2026-04-14 10:21 50.07532 10.93762 29125 ft 453 kts 92°
2026-04-14 10:22 50.07525 10.98701 29406 ft 455 kts 92°
2026-04-14 10:22 50.07516 11.03578 29660 ft 457 kts 92°
2026-04-14 10:22 50.07507 11.08530 29957 ft 458 kts 92°
2026-04-14 10:22 50.07497 11.13504 30239 ft 460 kts 92°
2026-04-14 10:23 50.07483 11.18496 30611 ft 459 kts 92°
2026-04-14 10:23 50.07469 11.23450 30991 ft 458 kts 92°
2026-04-14 10:23 50.07457 11.28425 31336 ft 457 kts 92°
2026-04-14 10:23 50.07441 11.33371 31681 ft 457 kts 92°
2026-04-14 10:24 50.07421 11.38329 32003 ft 456 kts 92°
2026-04-14 10:24 50.07398 11.43206 32343 ft 455 kts 92°
2026-04-14 10:24 50.07374 11.48144 32679 ft 455 kts 92°
2026-04-14 10:24 50.07350 11.53049 32979 ft 455 kts 92°
2026-04-14 10:25 50.07320 11.57987 33286 ft 455 kts 93°
2026-04-14 10:25 50.07285 11.62914 33606 ft 454 kts 93°
2026-04-14 10:25 50.07250 11.67629 33909 ft 454 kts 93°
2026-04-14 10:25 50.07216 11.72544 34200 ft 453 kts 93°
2026-04-14 10:26 50.07186 11.77451 34464 ft 453 kts 93°
2026-04-14 10:26 50.07155 11.82368 34734 ft 453 kts 93°
2026-04-14 10:26 50.07119 11.87234 34971 ft 453 kts 93°
2026-04-14 10:26 50.07083 11.92150 35051 ft 453 kts 93°
2026-04-14 10:27 50.07001 12.01935 35054 ft 451 kts 93°
2026-04-14 10:27 50.06901 12.11686 35045 ft 450 kts 94°
2026-04-14 10:28 50.06778 12.21371 35009 ft 450 kts 94°
2026-04-14 10:28 50.06646 12.31118 35011 ft 450 kts 94°
2026-04-14 10:29 50.06518 12.40860 35004 ft 449 kts 94°
2026-04-14 10:29 50.06490 12.50517 35026 ft 449 kts 92°
2026-04-14 10:30 50.06543 12.60272 35047 ft 449 kts 92°
2026-04-14 10:30 50.06579 12.69976 35072 ft 448 kts 92°
2026-04-14 10:31 50.06576 12.79686 35086 ft 448 kts 93°
2026-04-14 10:31 50.06554 12.89329 35078 ft 448 kts 93°
2026-04-14 10:32 50.06536 12.99020 35083 ft 447 kts 93°
2026-04-14 10:32 50.06519 13.08715 35075 ft 447 kts 93°
2026-04-14 10:33 50.06498 13.18392 35000 ft 447 kts 93°
2026-04-14 10:33 50.06456 13.28060 34998 ft 446 kts 93°
2026-04-14 10:34 50.06378 13.40904 34997 ft 446 kts 93°
2026-04-14 10:35 50.06321 13.50584 34990 ft 446 kts 93°
2026-04-14 10:35 50.06264 13.60236 34989 ft 446 kts 93°
2026-04-14 10:36 50.06192 13.69895 34987 ft 446 kts 94°
2026-04-14 10:36 50.06108 13.79495 34992 ft 446 kts 94°
2026-04-14 10:37 50.06016 13.89155 34988 ft 447 kts 93°
2026-04-14 10:37 50.05912 13.98875 34976 ft 449 kts 93°
2026-04-14 10:38 50.05807 14.08598 35057 ft 450 kts 93°
2026-04-14 10:38 50.05690 14.18370 35066 ft 451 kts 94°
2026-04-14 10:39 50.05566 14.28072 35065 ft 451 kts 94°
2026-04-14 10:39 50.05431 14.37846 35059 ft 451 kts 94°
2026-04-14 10:40 50.05290 14.47615 35065 ft 451 kts 94°
2026-04-14 10:40 50.05144 14.57391 35069 ft 452 kts 94°
2026-04-14 10:41 50.04985 14.67169 35065 ft 452 kts 94°
2026-04-14 10:41 50.04818 14.76942 35039 ft 451 kts 95°
2026-04-14 10:42 50.04644 14.86702 35022 ft 451 kts 95°
2026-04-14 10:42 50.04467 14.96477 35011 ft 451 kts 95°
2026-04-14 10:43 50.04278 15.06249 34985 ft 451 kts 95°
2026-04-14 10:43 50.04082 15.15959 34993 ft 451 kts 95°
2026-04-14 10:44 50.03868 15.25718 34999 ft 451 kts 95°
2026-04-14 10:44 50.03735 15.31716 35027 ft 451 kts 95°
2026-04-14 10:45 50.03520 15.41469 35054 ft 451 kts 95°
2026-04-14 10:45 50.03296 15.51225 35082 ft 451 kts 95°
2026-04-14 10:46 50.03065 15.60935 35104 ft 451 kts 95°
2026-04-14 10:46 50.02815 15.70697 35094 ft 451 kts 95°
2026-04-14 10:47 50.02559 15.80431 35097 ft 451 kts 95°
2026-04-14 10:47 50.02301 15.90178 35095 ft 451 kts 95°
2026-04-14 10:48 50.02033 15.99937 35021 ft 451 kts 95°
2026-04-14 10:48 50.01758 16.09713 35029 ft 451 kts 95°
2026-04-14 10:49 50.01469 16.19403 35023 ft 451 kts 95°
2026-04-14 10:49 50.01173 16.29167 35034 ft 451 kts 95°
2026-04-14 10:50 50.00871 16.38948 35030 ft 452 kts 95°
2026-04-14 10:50 50.00567 16.48705 35041 ft 452 kts 95°
2026-04-14 10:51 50.00251 16.58414 35044 ft 452 kts 96°
2026-04-14 10:51 49.99921 16.68171 35037 ft 452 kts 96°
2026-04-14 10:52 49.99601 16.77495 35042 ft 452 kts 96°
2026-04-14 10:52 49.99263 16.87260 35045 ft 452 kts 96°
2026-04-14 10:53 49.98915 16.96959 35048 ft 452 kts 96°
2026-04-14 10:53 49.98558 17.06722 35052 ft 452 kts 96°
2026-04-14 10:54 49.98197 17.16492 35000 ft 453 kts 96°
2026-04-14 10:54 49.98009 17.21389 34492 ft 454 kts 96°
2026-04-14 10:54 49.97814 17.26319 33426 ft 462 kts 96°
2026-04-14 10:54 49.97611 17.31328 32467 ft 465 kts 96°
2026-04-14 10:55 49.97409 17.36322 31922 ft 459 kts 96°
2026-04-14 10:55 49.97214 17.41194 31321 ft 456 kts 96°
2026-04-14 10:55 49.97021 17.46096 30704 ft 452 kts 96°
2026-04-14 10:55 49.96830 17.50968 30092 ft 448 kts 95°
2026-04-14 10:56 49.96636 17.55785 29443 ft 444 kts 95°
2026-04-14 10:56 49.96439 17.60552 28881 ft 438 kts 95°
2026-04-14 10:56 49.96242 17.65246 28305 ft 434 kts 95°
2026-04-14 10:56 49.96044 17.69903 27728 ft 429 kts 95°
2026-04-14 10:57 49.95845 17.74463 27180 ft 425 kts 96°
2026-04-14 10:57 49.95643 17.79092 26622 ft 421 kts 95°
2026-04-14 10:57 49.95446 17.83621 26079 ft 418 kts 95°
2026-04-14 10:57 49.95250 17.88104 25556 ft 414 kts 95°
2026-04-14 10:58 49.95053 17.92548 25038 ft 411 kts 95°
2026-04-14 10:58 49.94854 17.96951 24537 ft 407 kts 95°
2026-04-14 10:58 49.94655 18.01318 24047 ft 403 kts 95°
2026-04-14 10:58 49.94458 18.05654 23561 ft 400 kts 95°
2026-04-14 10:59 49.94263 18.09942 23058 ft 396 kts 95°
2026-04-14 10:59 49.94069 18.14177 22606 ft 390 kts 95°
2026-04-14 10:59 49.93876 18.18312 22162 ft 386 kts 96°
2026-04-14 10:59 49.93678 18.22465 21717 ft 382 kts 96°
2026-04-14 11:00 49.93480 18.26555 21282 ft 378 kts 96°
2026-04-14 11:00 49.93292 18.30637 20844 ft 375 kts 95°
2026-04-14 11:00 49.93151 18.34618 20405 ft 373 kts 94°
2026-04-14 11:00 49.93039 18.38642 19961 ft 371 kts 94°
2026-04-14 11:01 49.92938 18.42635 19496 ft 369 kts 94°
2026-04-14 11:01 49.92836 18.46611 19053 ft 368 kts 94°
2026-04-14 11:01 49.92725 18.50572 18635 ft 367 kts 94°
2026-04-14 11:01 49.92608 18.54473 18157 ft 366 kts 94°
2026-04-14 11:02 49.92482 18.58458 17694 ft 363 kts 95°
2026-04-14 11:02 49.92355 18.62311 17257 ft 361 kts 95°
2026-04-14 11:02 49.92229 18.66197 16833 ft 359 kts 95°
2026-04-14 11:02 49.92102 18.70066 16437 ft 358 kts 95°
2026-04-14 11:03 49.91973 18.73926 16031 ft 356 kts 95°
2026-04-14 11:03 49.91846 18.77760 15633 ft 354 kts 95°
2026-04-14 11:03 49.91707 18.81556 15238 ft 351 kts 96°
2026-04-14 11:03 49.91519 18.85336 14843 ft 349 kts 97°
2026-04-14 11:04 49.91305 18.89086 14451 ft 347 kts 97°
2026-04-14 11:04 49.91080 18.92797 14120 ft 343 kts 97°
2026-04-14 11:04 49.90861 18.96422 13993 ft 332 kts 97°
2026-04-14 11:04 49.90652 18.99931 13867 ft 322 kts 97°
2026-04-14 11:05 49.90451 19.03351 13683 ft 314 kts 97°
2026-04-14 11:05 49.90257 19.06712 13395 ft 311 kts 97°
2026-04-14 11:05 49.90069 19.09996 13080 ft 308 kts 97°
2026-04-14 11:05 49.89879 19.13298 12777 ft 306 kts 97°
2026-04-14 11:06 49.89688 19.16585 12467 ft 304 kts 97°
2026-04-14 11:06 49.89498 19.19855 12165 ft 303 kts 97°
2026-04-14 11:06 49.89310 19.23097 11871 ft 302 kts 97°
2026-04-14 11:06 49.89158 19.25648 11636 ft 300 kts 99°
2026-04-14 11:07 49.88679 19.28728 11341 ft 295 kts 113°
2026-04-14 11:07 49.87769 19.31597 11036 ft 292 kts 121°
2026-04-14 11:07 49.86804 19.34316 10746 ft 291 kts 121°
2026-04-14 11:07 49.85831 19.37073 10457 ft 290 kts 120°
2026-04-14 11:08 49.85189 19.39382 10223 ft 291 kts 109°
2026-04-14 11:08 49.84854 19.42488 9916 ft 294 kts 92°
2026-04-14 11:08 49.85070 19.45632 9607 ft 294 kts 78°
2026-04-14 11:08 49.85529 19.48713 9310 ft 293 kts 78°
2026-04-14 11:09 49.85969 19.51753 9015 ft 291 kts 79°
2026-04-14 11:09 49.86407 19.54819 8720 ft 290 kts 79°
2026-04-14 11:09 49.86841 19.57859 8412 ft 287 kts 79°
2026-04-14 11:10 49.88031 19.63473 8140 ft 267 kts 50°
2026-04-14 11:10 49.88962 19.64681 8043 ft 261 kts 27°
2026-04-14 11:10 49.90682 19.65309 7885 ft 253 kts 354°
2026-04-14 11:10 49.92926 19.64358 7667 ft 253 kts 343°
2026-04-14 11:11 49.94054 19.63796 7545 ft 251 kts 334°
2026-04-14 11:11 49.95398 19.62195 7366 ft 246 kts 303°
2026-04-14 11:11 49.95993 19.59774 7197 ft 240 kts 271°
2026-04-14 11:11 49.95788 19.57219 7041 ft 239 kts 255°
2026-04-14 11:12 49.95419 19.54696 6875 ft 239 kts 255°
2026-04-14 11:12 49.95047 19.52171 6710 ft 240 kts 255°
2026-04-14 11:12 49.94683 19.49677 6457 ft 238 kts 256°
2026-04-14 11:12 49.94318 19.47141 6276 ft 238 kts 256°
2026-04-14 11:13 49.93966 19.44670 6113 ft 237 kts 255°
2026-04-14 11:13 49.93639 19.42178 5960 ft 235 kts 262°
2026-04-14 11:13 49.93895 19.39683 5793 ft 238 kts 294°
2026-04-14 11:13 49.94985 19.37743 5629 ft 243 kts 327°
2026-04-14 11:14 49.96586 19.36883 5450 ft 245 kts 346°
2026-04-14 11:14 49.98230 19.36323 5282 ft 245 kts 346°
2026-04-14 11:14 49.99918 19.36216 5102 ft 244 kts 13°
2026-04-14 11:14 50.01412 19.37423 4928 ft 244 kts 45°
2026-04-14 11:15 50.02291 19.39629 4696 ft 240 kts 76°
2026-04-14 11:15 50.02669 19.42169 4480 ft 241 kts 79°
2026-04-14 11:15 50.03026 19.44700 4258 ft 237 kts 79°
2026-04-14 11:15 50.03376 19.47185 4049 ft 234 kts 79°
2026-04-14 11:16 50.03720 19.49628 3850 ft 234 kts 79°
2026-04-14 11:16 50.04073 19.52150 3622 ft 234 kts 79°
2026-04-14 11:16 50.04413 19.54567 3420 ft 227 kts 78°
2026-04-14 11:16 50.04748 19.56927 3222 ft 218 kts 78°
2026-04-14 11:17 50.05069 19.59178 3034 ft 208 kts 77°
2026-04-14 11:17 50.05369 19.61281 2889 ft 190 kts 79°
2026-04-14 11:17 50.05627 19.63190 2632 ft 170 kts 79°
2026-04-14 11:17 50.05864 19.64949 2253 ft 161 kts 78°
2026-04-14 11:18 50.06091 19.66584 2002 ft 149 kts 78°
2026-04-14 11:18 50.06297 19.68129 1875 ft 143 kts 78°
2026-04-14 11:18 50.06500 19.69632 1742 ft 139 kts 79°
2026-04-14 11:18 50.06696 19.71111 1561 ft 139 kts 77°
2026-04-14 11:19 50.06952 19.72559 1404 ft 140 kts 77°
2026-04-14 11:19 50.07152 19.74027 1229 ft 138 kts 80°
2026-04-14 11:19 50.07342 19.75458 999 ft 135 kts 77°
2026-04-14 11:19 50.07551 19.76881 830 ft 134 kts 79°
2026-04-14 11:20 50.07730 19.78190 790 ft 94 kts 78°
2026-04-14 11:20 50.07810 19.78775 792 ft 36 kts 77°
2026-04-14 11:20 50.07814 19.79051 791 ft 18 kts 135°
2026-04-14 11:20 50.07726 19.79098 790 ft 9 kts 168°
2026-04-14 11:21 50.07678 19.79112 790 ft 5 kts 169°
2026-04-14 11:21 50.07657 19.79120 790 ft 3 kts 165°
2026-04-14 11:21 50.07642 19.79128 790 ft 2 kts 158°
2026-04-14 11:21 50.07633 19.79135 790 ft 2 kts 150°
2026-04-14 11:22 50.07617 19.79178 790 ft 7 kts 103°
2026-04-14 11:22 50.07629 19.79279 790 ft 12 kts 82°
2026-04-14 11:22 50.07652 19.79435 790 ft 17 kts 78°
2026-04-14 11:22 50.07679 19.79631 790 ft 11 kts 81°
2026-04-14 11:23 50.07633 19.79707 790 ft 13 kts 163°
2026-04-14 11:23 50.07527 19.79742 790 ft 17 kts 168°
2026-04-14 11:23 50.07403 19.79785 790 ft 8 kts 161°
2026-04-14 11:23 50.07379 19.79834 790 ft 7 kts 94°
2026-04-14 11:24 50.07346 19.79911 790 ft 8 kts 160°
2026-04-14 11:24 50.07316 19.79920 790 ft 3 kts 168°
2026-04-14 11:24 50.07313 19.79921 790 ft 0 kts 168°